• In Austria
  • List of Countries
  • For 7 days
  • Water Temperature
  • Satellite Maps
  • Weather Map
  • News
  • Weather Widgets
  • user-avatar
    Login

    Hourly Weather Fier

    Today, 23 September, Sunday

    Time Temperature Precipitation Wind Pressure Humidity
    00:00 +23°C° 0 mm 1 mps 763 mmHg 75%
    01:00 +21°C° 0 mm 0 mps 763 mmHg 75%
    02:00 +23°C° 0 mm 1 mps 763 mmHg 74%
    03:00 +23°C° 0 mm 1 mps 763 mmHg 73%
    04:00 +23°C° 0 mm 1 mps 763 mmHg 72%
    05:00 +24°C° 0 mm 1 mps 763 mmHg 68%
    06:00 +25°C° 0 mm 1 mps 763 mmHg 64%
    07:00 +26°C° 0 mm 1 mps 763 mmHg 57%
    08:00 +28°C° 0 mm 1 mps 763 mmHg 51%
    09:00 +30°C° 0 mm 1 mps 763 mmHg 44%
    10:00 +32°C° 0 mm 1 mps 763 mmHg 38%
    11:00 +34°C° 0 mm 2 mps 763 mmHg 36%
    12:00 +34°C° 0 mm 2 mps 763 mmHg 34%
    13:00 +35°C° 0 mm 3 mps 763 mmHg 31%
    14:00 +34°C° 0 mm 3 mps 762 mmHg 34%
    15:00 +34°C° 0 mm 3 mps 762 mmHg 36%
    16:00 +32°C° 0 mm 2 mps 762 mmHg 39%
    17:00 +30°C° 0 mm 2 mps 762 mmHg 46%
    18:00 +28°C° 0 mm 1 mps 762 mmHg 53%
    19:00 +25°C° 0 mm 1 mps 762 mmHg 60%
    20:00 +25°C° 0 mm 1 mps 762 mmHg 61%
    21:00 +25°C° 0 mm 1 mps 762 mmHg 61%
    22:00 +25°C° 0 mm 2 mps 762 mmHg 61%
    23:00 +24°C° 0 mm 2 mps 762 mmHg 62%

    Tomorrow, 24 September, Monday

    Time Temperature Precipitation Wind Pressure Humidity
    00:00 +24°C° 0 mm 2 mps 762 mmHg 62%
    01:00 +24°C° 0 mm 2 mps 761 mmHg 63%
    02:00 +22°C° 0 mm 3 mps 761 mmHg 64%
    03:00 +22°C° 0 mm 3 mps 761 mmHg 65%
    04:00 +22°C° 0 mm 3 mps 761 mmHg 66%
    05:00 +24°C° 0 mm 3 mps 761 mmHg 63%
    06:00 +24°C° 0 mm 3 mps 760 mmHg 60%
    07:00 +25°C° 0 mm 3 mps 760 mmHg 57%
    08:00 +27°C° 0 mm 4 mps 760 mmHg 50%
    09:00 +29°C° 0 mm 4 mps 760 mmHg 43%
    10:00 +32°C° 0 mm 4 mps 760 mmHg 37%
    11:00 +33°C° 0 mm 4 mps 759 mmHg 35%
    12:00 +33°C° 0 mm 4 mps 759 mmHg 34%
    13:00 +34°C° 0 mm 5 mps 759 mmHg 33%
    14:00 +33°C° 0 mm 4 mps 759 mmHg 37%
    15:00 +33°C° 0 mm 4 mps 759 mmHg 42%
    16:00 +32°C° 0 mm 4 mps 759 mmHg 47%
    17:00 +29°C° 0.1 mm 3 mps 759 mmHg 57%
    18:00 +27°C° 0.1 mm 3 mps 760 mmHg 67%
    19:00 +25°C° 0.1 mm 2 mps 760 mmHg 77%
    20:00 +25°C° 0 mm 2 mps 761 mmHg 77%
    21:00 +24°C° 0 mm 2 mps 762 mmHg 76%
    22:00 +23°C° 0 mm 2 mps 762 mmHg 76%
    23:00 +22°C° 0 mm 3 mps 762 mmHg 73%

    Day after tomorrow, 25 September, Tuesday

    Time Temperature Precipitation Wind Pressure Humidity
    00:00 +21°C° 0 mm 4 mps 763 mmHg 69%
    01:00 +20°C° 0 mm 5 mps 763 mmHg 65%
    02:00 +19°C° 0 mm 5 mps 763 mmHg 63%
    03:00 +19°C° 0 mm 5 mps 763 mmHg 61%
    04:00 +17°C° 0 mm 6 mps 763 mmHg 59%
    05:00 +17°C° 0 mm 6 mps 764 mmHg 55%
    06:00 +19°C° 0 mm 6 mps 764 mmHg 52%
    07:00 +19°C° 0 mm 6 mps 764 mmHg 48%
    08:00 +21°C° 0 mm 6 mps 764 mmHg 43%
    09:00 +23°C° 0 mm 6 mps 765 mmHg 38%
    10:00 +26°C° 0 mm 6 mps 765 mmHg 33%
    11:00 +27°C° 0 mm 6 mps 765 mmHg 32%
    12:00 +28°C° 0 mm 6 mps 764 mmHg 30%
    13:00 +29°C° 0 mm 7 mps 764 mmHg 29%
    14:00 +28°C° 0 mm 7 mps 764 mmHg 29%
    15:00 +28°C° 0 mm 7 mps 764 mmHg 29%
    16:00 +27°C° 0 mm 7 mps 764 mmHg 29%
    17:00 +24°C° 0 mm 7 mps 765 mmHg 30%
    18:00 +22°C° 0 mm 7 mps 765 mmHg 31%
    19:00 +20°C° 0 mm 6 mps 766 mmHg 33%
    20:00 +19°C° 0 mm 6 mps 767 mmHg 34%
    21:00 +17°C° 0 mm 6 mps 767 mmHg 34%
    22:00 +16°C° 0 mm 6 mps 768 mmHg 35%
    23:00 +15°C° 0 mm 6 mps 768 mmHg 36%

    26 September, Wednesday

    Time Temperature Precipitation Wind Pressure Humidity
    00:00 +14°C° 0 mm 6 mps 768 mmHg 37%
    01:00 +14°C° 0 mm 6 mps 768 mmHg 37%
    02:00 +13°C° 0 mm 6 mps 768 mmHg 39%
    03:00 +11°C° 0 mm 6 mps 768 mmHg 40%
    04:00 +11°C° 0 mm 6 mps 769 mmHg 41%
    05:00 +11°C° 0 mm 6 mps 769 mmHg 40%
    06:00 +13°C° 0 mm 6 mps 769 mmHg 39%
    07:00 +14°C° 0 mm 6 mps 770 mmHg 38%
    08:00 +16°C° 0 mm 6 mps 770 mmHg 33%
    09:00 +19°C° 0 mm 6 mps 770 mmHg 27%
    10:00 +22°C° 0 mm 6 mps 770 mmHg 21%
    11:00 +23°C° 0 mm 5 mps 770 mmHg 20%
    12:00 +23°C° 0 mm 5 mps 769 mmHg 18%
    13:00 +25°C° 0 mm 5 mps 769 mmHg 17%
    14:00 +25°C° 0 mm 5 mps 769 mmHg 17%
    15:00 +25°C° 0 mm 5 mps 769 mmHg 17%
    16:00 +25°C° 0 mm 5 mps 769 mmHg 18%
    17:00 +21°C° 0 mm 5 mps 769 mmHg 20%
    18:00 +19°C° 0 mm 5 mps 769 mmHg 23%
    19:00 +16°C° 0 mm 5 mps 770 mmHg 26%
    20:00 +15°C° 0 mm 4 mps 770 mmHg 27%
    21:00 +15°C° 0 mm 4 mps 770 mmHg 28%
    22:00 +14°C° 0 mm 4 mps 771 mmHg 30%
    23:00 +14°C° 0 mm 4 mps 771 mmHg 32%

    27 September, Thursday

    Time Temperature Precipitation Wind Pressure Humidity
    00:00 +13°C° 0 mm 4 mps 771 mmHg 33%
    01:00 +13°C° 0 mm 3 mps 770 mmHg 35%
    02:00 +12°C° 0 mm 3 mps 770 mmHg 36%
    03:00 +12°C° 0 mm 3 mps 770 mmHg 38%
    04:00 +12°C° 0 mm 3 mps 770 mmHg 39%
    05:00 +13°C° 0 mm 3 mps 770 mmHg 38%
    06:00 +14°C° 0 mm 3 mps 769 mmHg 36%
    07:00 +16°C° 0 mm 3 mps 769 mmHg 35%
    08:00 +18°C° 0 mm 3 mps 769 mmHg 29%
    09:00 +21°C° 0 mm 3 mps 768 mmHg 23%
    10:00 +25°C° 0 mm 3 mps 768 mmHg 17%
    11:00 +26°C° 0 mm 4 mps 768 mmHg 16%
    12:00 +27°C° 0 mm 5 mps 767 mmHg 15%
    13:00 +28°C° 0 mm 6 mps 766 mmHg 14%
    14:00 +27°C° 0 mm 6 mps 766 mmHg 17%
    15:00 +27°C° 0 mm 6 mps 765 mmHg 19%
    16:00 +26°C° 0 mm 6 mps 765 mmHg 22%
    17:00 +23°C° 0 mm 6 mps 765 mmHg 30%
    18:00 +21°C° 0 mm 5 mps 765 mmHg 38%
    19:00 +17°C° 0 mm 5 mps 765 mmHg 46%
    20:00 +18°C° 0 mm 4 mps 765 mmHg 43%
    21:00 +18°C° 0 mm 4 mps 765 mmHg 41%
    22:00 +18°C° 0 mm 4 mps 764 mmHg 38%
    23:00 +17°C° 0 mm 4 mps 764 mmHg 35%

    28 September, Friday

    Time Temperature Precipitation Wind Pressure Humidity
    00:00 +17°C° 0 mm 4 mps 764 mmHg 31%
    01:00 +17°C° 0 mm 4 mps 763 mmHg 28%
    02:00 +17°C° 0 mm 4 mps 763 mmHg 27%
    03:00 +16°C° 0 mm 3 mps 763 mmHg 26%
    04:00 +16°C° 0 mm 3 mps 763 mmHg 25%
    05:00 +17°C° 0 mm 3 mps 763 mmHg 26%
    06:00 +18°C° 0 mm 3 mps 762 mmHg 26%
    07:00 +19°C° 0 mm 3 mps 762 mmHg 27%
    08:00 +22°C° 0 mm 3 mps 762 mmHg 25%
    09:00 +25°C° 0 mm 2 mps 762 mmHg 23%
    10:00 +28°C° 0 mm 2 mps 762 mmHg 21%
    11:00 +28°C° 0 mm 2 mps 762 mmHg 21%
    12:00 +29°C° 0 mm 2 mps 761 mmHg 22%
    13:00 +30°C° 0 mm 3 mps 761 mmHg 22%
    14:00 +29°C° 0 mm 3 mps 760 mmHg 24%
    15:00 +29°C° 0 mm 3 mps 760 mmHg 25%
    16:00 +28°C° 0 mm 3 mps 760 mmHg 27%
    17:00 +26°C° 0 mm 3 mps 760 mmHg 32%
    18:00 +24°C° 0 mm 2 mps 760 mmHg 38%
    19:00 +21°C° 0 mm 1 mps 761 mmHg 43%
    20:00 +21°C° 0 mm 1 mps 761 mmHg 43%
    21:00 +21°C° 0 mm 1 mps 761 mmHg 43%
    22:00 +20°C° 0 mm 1 mps 761 mmHg 43%
    23:00 +20°C° 0 mm 1 mps 761 mmHg 42%
    Show more